Torna al catalogo

STARLINK-3983

AttivoComunicazioniVLEO
NORAD 52618·PAYLOAD·🇺🇸 United States

Lanciato May 14, 2022 da Cape Canaveral Space Force Station

Loading…

Prossimi Passaggi (prossime 24 ore)

TLE

AggiornatoSource: CelesTrak SupGP

Epoca: Sep 14, 2026, 13:12 UTC

1 52618C 22052W   26257.55048611  .00050173  00000+0  14356-2 0  2578
2 52618  53.1568 130.3913 0001270 100.0751 230.6841 15.35371264    18

Traccia STARLINK-3983 in tempo reale con AllMySat

Download on the App Store